Vorticity
6 4 4 5 8 9 6 9 4 2 0 1 3 -2 3 -4 -3 3 10 20 7 8 0 -1 20 10 10 12 10 11 9 5 7 7 6 7 7 3 3 5 6 5 7 4 3 7 5 3 5
6 5 4 1 3 4 9 15 15 13 0 5 7 2 1 -4 7 -1 22 13 9 7 3 16 7 5 6 9 11 10 10 7 7 7 5 5 6 7 6 7 7 5 6 6 2 7 5 4 7
6 5 5 10 15 2 16 4 -1 7 26 -3 4 1 -1 -0 0 6 12 6 13 8 12 10 10 8 6 7 10 9 9 6 7 5 5 9 5 8 10 8 5 6 6 6 6 7 8 7 7
5 7 7 2 -9 -5 18 -1 -7 12 2 8 1 0 5 2 0 5 10 10 -3 4 11 -1 1 11 11 8 6 13 10 6 6 7 17 -13 12 -7 12 5 1 5 10 9 11 11 9 7 6
5 5 5 -1 3 8 6 -7 -2 -0 14 4 -1 1 -7 -1 6 10 4 7 1 10 1 -1 -0 9 9 7 9 8 11 12 4 -1 31 13 1 16 9 5 4 4 8 9 10 8 7 6 9
6 5 -3 8 7 4 5 7 7 4 15 17 15 3 0 1 12 7 3 7 8 5 8 3 1 3 11 4 8 11 8 11 10 5 5 -4 60 -21 3 -21 -4 1 9 9 9 7 6 8 11
5 6 -0 3 2 3 -1 12 12 1 13 9 11 13 -10 0 8 8 8 5 4 -1 5 3 1 1 7 8 4 8 10 11 4 4 19 37 8 11 35 1 11 6 2 10 8 6 8 10 10
6 8 4 1 4 1 4 11 0 17 5 4 4 21 3 -1 -1 4 -4 4 5 -1 7 5 4 -0 7 8 5 6 5 8 7 9 9 7 9 7 6 12 -14 -12 7 9 8 10 9 11 5
6 7 2 -2 3 5 -5 -17 29 -3 14 -6 -2 4 12 1 10 7 5 8 2 12 2 8 8 1 5 5 7 4 5 5 7 4 12 10 8 9 -3 8 27 14 -13 8 9 9 6 6 4
3 1 3 2 3 4 4 4 2 -14 -5 3 3 -5 5 1 -3 6 5 7 9 9 8 4 9 12 6 9 5 4 6 3 8 3 10 7 10 8 9 7 -13 42 22 8 9 9 8 4 4
5 3 5 3 4 5 6 2 1 7 12 5 -0 2 -3 -6 0 2 4 2 2 5 -2 7 7 5 10 13 4 7 6 6 9 3 6 8 19 11 10 5 15 -1 38 4 10 8 7 5 4
5 3 2 5 6 5 8 4 6 5 8 13 0 4 2 5 5 2 -0 4 3 9 6 11 9 2 4 14 8 5 4 8 7 9 8 17 17 14 11 3 14 -20 34 2 8 7 2 4 10
10 7 6 7 6 4 4 8 7 8 5 7 7 4 1 0 5 9 0 6 1 2 -1 6 0 -2 -0 9 7 5 6 5 11 7 20 23 17 13 12 12 14 29 10 2 7 5 5 6 5
3 12 19 14 9 7 6 6 4 7 6 4 6 8 9 4 -1 4 0 2 6 7 3 3 3 3 2 0 7 3 5 10 14 25 22 10 6 9 20 7 6 -12 19 19 7 6 7 4 3
3 10 8 6 7 7 9 6 9 9 14 9 9 10 6 4 6 4 2 2 7 20 2 7 1 6 4 0 5 6 5 23 33 20 13 7 4 28 18 -3 2 30 -0 17 6 8 4 3 2
9 18 16 23 21 22 19 5 5 2 -3 6 4 4 3 4 7 7 1 3 12 18 8 4 9 3 5 2 3 5 13 30 18 11 6 -14 5 19 6 35 32 -2 16 13 5 3 5 -5 8
22 -10 -8 0 -1 3 4 8 12 5 -3 2 4 6 12 16 13 10 9 17 8 12 3 25 15 6 5 1 3 5 14 24 7 6 11 -13 12 2 23 13 22 6 7 7 3 2 3 5 4
11 4 4 -0 6 12 6 3 -0 5 12 12 13 13 9 7 13 17 23 15 16 6 15 9 5 6 3 5 4 7 14 20 12 7 -8 37 29 8 -7 22 12 33 7 7 5 5 1 8 -1
-10 -7 -10 -14 -13 3 7 9 13 12 5 -0 8 9 8 20 -3 23 25 14 17 13 3 5 3 11 2 5 6 6 14 15 16 3 18 24 21 22 30 4 -10 28 5 2 2 1 4 5 2
12 11 9 15 35 22 12 7 2 2 5 9 13 14 10 20 24 24 28 10 8 15 -3 1 -1 17 4 1 6 6 10 18 13 8 5 14 36 34 33 28 1 24 4 3 3 5 8 3 2
6 5 6 2 0 15 5 18 27 21 16 13 14 -7 13 3 16 21 36 16 11 5 14 4 -4 5 7 -2 8 6 10 18 12 9 5 39 13 0 19 11 16 10 3 6 7 7 5 2 3
19 16 6 15 19 7 -21 -12 11 29 21 -13 6 14 -9 17 29 23 25 17 7 11 9 13 14 13 6 -2 8 4 11 15 15 15 8 -1 45 -19 25 11 9 2 6 5 5 3 3 4 3
-13 -13 -10 8 9 18 26 20 23 -55 -7 29 -4 7 34 3 1 36 3 21 8 22 11 -1 10 17 4 -2 6 3 10 16 17 8 12 6 -1 35 24 17 -1 6 5 6 6 5 3 3 5
27 6 6 3 1 26 11 -5 24 27 9 -10 24 16 1 -11 -2 18 22 18 12 2 16 8 11 8 4 1 7 5 9 14 14 12 9 8 8 6 17 41 16 9 1 7 6 5 4 4 4
-1 4 10 14 11 1 7 33 -28 -21 31 -16 10 8 11 17 19 10 21 18 17 -15 -5 35 13 6 4 3 7 6 8 14 11 13 13 11 8 6 6 23 -8 7 6 7 5 5 6 6 4
34 18 -24 8 7 1 13 15 -7 -17 2 20 22 17 5 17 9 11 15 10 26 13 -11 27 12 7 3 7 6 6 8 13 14 12 15 5 5 7 1 6 4 28 5 3 0 4 2 3 4
17 6 17 11 25 12 9 2 1 44 13 -2 30 20 17 -14 11 4 12 43 -6 -3 -2 29 11 7 3 8 6 5 11 14 14 15 17 11 17 18 14 11 15 -9 17 -2 4 17 1 7 11
9 14 7 17 8 3 19 15 2 31 16 14 19 10 9 4 -6 38 4 14 8 19 -0 24 7 9 -0 8 6 6 11 13 17 16 16 16 16 11 10 17 18 18 5 12 5 -4 8 8 10
10 10 11 3 11 12 10 14 2 -15 3 8 7 0 6 11 -9 56 18 16 7 12 16 19 10 4 5 7 5 7 11 13 18 13 7 21 1 -3 40 43 35 10 27 19 -6 4 -8 30 9
5 19 22 0 14 2 -0 8 -10 -0 -18 4 15 10 3 4 36 0 31 37 43 10 18 23 12 2 9 6 5 8 11 11 15 13 9 9 17 12 12 56 16 33 19 42 -8 17 17 -14 12
Height
3122 3122 3121 3122 3126 3121 3120 3122 3122 3123 3124 3125 3126 3127 3128 3128 3129 3131 3127 3125 3125 3124 3123 3122 3120 3119 3119 3118 3119 3120 3122 3125 3127 3129 3131 3133 3135 3137 3138 3140 3141 3142 3143 3144 3146 3147 3148 3149 3150
3120 3120 3120 3120 3121 3119 3119 3119 3120 3121 3121 3122 3123 3125 3126 3127 3127 3126 3125 3124 3124 3123 3122 3120 3118 3118 3118 3118 3118 3119 3121 3123 3125 3127 3129 3132 3134 3135 3137 3138 3139 3140 3141 3142 3144 3146 3147 3149 3150
3119 3119 3120 3118 3116 3116 3117 3117 3118 3119 3119 3120 3122 3122 3124 3125 3125 3124 3123 3123 3122 3122 3121 3119 3118 3117 3117 3118 3117 3118 3119 3121 3122 3125 3127 3129 3131 3133 3135 3137 3138 3139 3139 3140 3142 3144 3146 3148 3149
3116 3118 3119 3116 3114 3115 3116 3116 3117 3118 3118 3119 3120 3121 3122 3123 3122 3122 3120 3121 3121 3121 3120 3119 3117 3117 3116 3116 3117 3117 3118 3119 3120 3122 3124 3126 3128 3130 3132 3133 3135 3136 3138 3139 3140 3142 3145 3146 3148
3113 3115 3115 3111 3110 3111 3115 3115 3115 3115 3115 3116 3116 3117 3119 3120 3120 3120 3119 3118 3119 3119 3119 3118 3117 3115 3116 3116 3116 3117 3117 3116 3117 3119 3113 3120 3120 3125 3128 3129 3131 3133 3135 3137 3139 3140 3142 3146 3149
3109 3110 3110 3108 3106 3108 3110 3112 3112 3112 3111 3111 3113 3114 3116 3117 3117 3117 3117 3117 3117 3116 3116 3116 3115 3114 3114 3114 3115 3115 3115 3115 3115 3114 3115 3117 3115 3121 3122 3125 3128 3131 3133 3135 3137 3138 3141 3145 3148
3104 3104 3104 3106 3103 3105 3107 3108 3108 3108 3108 3108 3108 3110 3114 3115 3114 3114 3114 3114 3115 3114 3113 3114 3114 3113 3112 3113 3113 3113 3112 3112 3112 3112 3113 3113 3114 3116 3120 3122 3125 3129 3130 3133 3135 3138 3141 3144 3147
3099 3099 3097 3100 3099 3101 3103 3105 3105 3105 3106 3105 3105 3108 3111 3111 3111 3112 3112 3112 3112 3112 3112 3111 3111 3111 3110 3110 3110 3110 3109 3108 3108 3108 3109 3110 3112 3114 3117 3119 3119 3126 3128 3130 3133 3138 3140 3143 3146
3095 3092 3087 3094 3096 3097 3099 3100 3100 3101 3102 3102 3103 3102 3105 3105 3107 3107 3108 3107 3108 3109 3109 3108 3108 3108 3107 3106 3106 3106 3105 3104 3103 3103 3103 3105 3107 3110 3112 3116 3116 3120 3121 3128 3132 3136 3139 3141 3144
3089 3083 3081 3089 3092 3094 3094 3094 3097 3096 3096 3098 3099 3101 3101 3101 3101 3103 3104 3105 3105 3105 3105 3104 3104 3103 3103 3102 3102 3102 3101 3099 3098 3097 3097 3099 3101 3104 3107 3111 3113 3117 3118 3124 3129 3133 3137 3140 3142
3081 3074 3082 3084 3087 3089 3088 3087 3091 3089 3089 3095 3096 3097 3096 3097 3098 3098 3100 3100 3100 3100 3099 3100 3099 3099 3098 3098 3098 3097 3097 3094 3092 3092 3090 3091 3093 3097 3101 3106 3108 3112 3116 3119 3124 3128 3134 3137 3141
3075 3074 3078 3079 3083 3082 3083 3082 3081 3084 3086 3090 3091 3092 3092 3092 3093 3094 3095 3095 3096 3095 3095 3094 3094 3094 3094 3094 3093 3092 3091 3088 3086 3086 3084 3084 3086 3089 3095 3101 3104 3107 3112 3116 3121 3127 3131 3135 3138
3068 3069 3073 3075 3076 3077 3078 3077 3077 3075 3081 3084 3085 3085 3086 3086 3087 3088 3089 3089 3089 3089 3090 3090 3089 3089 3089 3089 3088 3086 3084 3081 3078 3079 3078 3078 3082 3084 3088 3095 3100 3104 3109 3115 3118 3124 3129 3133 3136
3064 3065 3066 3068 3069 3071 3071 3071 3071 3072 3078 3077 3078 3079 3080 3080 3082 3082 3082 3083 3083 3083 3083 3084 3084 3084 3084 3084 3083 3080 3077 3074 3070 3069 3071 3073 3077 3080 3081 3087 3092 3099 3105 3109 3115 3121 3126 3130 3133
3058 3060 3060 3060 3064 3064 3068 3059 3063 3069 3071 3071 3071 3072 3073 3074 3075 3074 3074 3074 3075 3075 3075 3076 3077 3078 3078 3078 3077 3074 3069 3065 3062 3063 3064 3067 3070 3069 3075 3080 3087 3094 3100 3108 3111 3118 3123 3128 3131
3055 3054 3052 3055 3059 3061 3063 3046 3059 3063 3063 3063 3064 3065 3065 3066 3066 3067 3066 3066 3068 3066 3067 3068 3069 3071 3072 3073 3071 3067 3064 3059 3057 3058 3060 3060 3060 3062 3067 3073 3080 3088 3095 3103 3108 3114 3119 3125 3130
3049 3047 3048 3050 3054 3057 3055 3045 3052 3055 3056 3055 3057 3057 3058 3058 3059 3059 3056 3058 3058 3058 3060 3060 3061 3063 3066 3067 3065 3060 3058 3055 3053 3053 3055 3055 3053 3055 3059 3067 3074 3082 3090 3098 3104 3111 3116 3123 3127
3044 3043 3041 3044 3050 3051 3048 3040 3045 3049 3048 3046 3048 3051 3050 3048 3048 3048 3046 3049 3049 3050 3053 3054 3054 3056 3059 3061 3059 3055 3051 3048 3048 3048 3047 3043 3041 3046 3051 3059 3069 3077 3084 3094 3099 3107 3113 3120 3124
3041 3039 3039 3040 3045 3045 3042 3033 3037 3040 3040 3041 3043 3044 3042 3040 3039 3036 3035 3039 3040 3043 3047 3048 3049 3049 3053 3054 3053 3050 3046 3044 3043 3043 3042 3036 3034 3038 3042 3054 3064 3072 3082 3091 3097 3104 3111 3115 3118
3035 3034 3032 3036 3040 3038 3036 3026 3030 3033 3033 3036 3038 3037 3035 3033 3029 3028 3028 3032 3034 3036 3040 3042 3044 3044 3047 3048 3047 3044 3042 3040 3039 3039 3037 3031 3030 3034 3041 3051 3060 3068 3078 3087 3093 3097 3104 3109 3115
3027 3028 3029 3033 3035 3034 3030 3017 3022 3025 3028 3031 3032 3031 3030 3027 3022 3021 3021 3026 3028 3032 3034 3036 3037 3039 3041 3043 3041 3040 3038 3036 3036 3036 3036 3033 3033 3037 3043 3049 3059 3067 3077 3084 3090 3095 3100 3106 3111
3021 3024 3027 3028 3031 3030 3030 3015 3015 3021 3023 3026 3027 3025 3024 3020 3017 3016 3014 3016 3021 3024 3027 3029 3030 3034 3036 3037 3036 3036 3034 3034 3034 3035 3036 3035 3036 3038 3043 3050 3057 3066 3073 3080 3087 3092 3096 3102 3106
3014 3020 3022 3024 3025 3025 3024 3026 3009 3014 3019 3021 3021 3021 3017 3014 3012 3011 3009 3008 3011 3017 3021 3022 3024 3027 3030 3031 3032 3032 3031 3031 3031 3032 3034 3036 3038 3038 3042 3048 3055 3060 3069 3077 3083 3088 3092 3097 3104
3013 3015 3018 3018 3020 3017 3017 3023 2995 3011 3014 3016 3017 3016 3013 3010 3007 3005 3004 3004 3009 3011 3015 3017 3019 3021 3025 3027 3027 3028 3027 3026 3027 3029 3030 3032 3035 3038 3040 3045 3052 3057 3065 3072 3079 3084 3089 3094 3100
3008 3011 3014 3015 3015 3011 3012 3017 3004 3010 3010 3011 3010 3010 3008 3004 3000 3000 2999 2999 3002 3005 3009 3010 3013 3016 3020 3022 3023 3024 3023 3022 3022 3025 3028 3031 3033 3036 3040 3045 3049 3055 3061 3067 3073 3078 3084 3090 3094
3001 3004 3006 3007 3009 3007 3009 3005 3006 3007 3007 3006 3004 3003 3001 2999 2997 2996 2994 2994 2996 2999 3002 3003 3006 3011 3014 3017 3019 3020 3019 3018 3018 3020 3023 3027 3030 3032 3037 3041 3046 3051 3056 3061 3067 3073 3078 3083 3089
2997 2999 3001 3001 3002 3005 3003 3001 3004 3004 3002 3002 2999 2997 2996 2995 2993 2988 2986 2987 2989 2993 2994 2994 2998 3004 3010 3013 3014 3015 3015 3014 3015 3016 3019 3021 3023 3027 3031 3034 3038 3042 3048 3054 3060 3064 3068 3071 3077
2994 2995 2997 2998 3001 3001 2997 2998 3000 2999 2999 2997 2995 2993 2992 2990 2987 2984 2981 2979 2982 2983 2985 2986 2990 2998 3005 3008 3010 3011 3011 3011 3012 3012 3015 3017 3019 3021 3022 3023 3027 3029 3038 3046 3051 3055 3060 3064 3069
2992 2991 2993 2996 2998 2999 3000 2998 2996 2995 2994 2993 2992 2990 2988 2985 2982 2976 2974 2973 2975 2976 2978 2981 2986 2993 2999 3003 3005 3006 3007 3007 3009 3010 3013 3011 3013 3016 3015 3013 3016 3022 3028 3037 3043 3049 3056 3060 3064
2987 2988 2990 2992 2998 2998 2999 2995 2994 2994 2993 2992 2989 2987 2983 2980 2978 2973 2968 2967 2967 2967 2970 2975 2981 2989 2995 2997 3000 3001 3003 3004 3005 3007 3009 3009 3010 3012 3012 3009 3011 3018 3023 3029 3035 3043 3049 3055 3060